Regional Weather Roundup
Issued by NWS

Home | Current Version | Previous Version | Text Only | Print | Product List | Glossary Off
Versions: 1 2 3 4 5 6 7 8 9 10 11 12 13 14 15 16 17 18 19 20 21 22 23 24 25 26 27 28 29 30 31 32 33 34 35 36 37 38 39 40 41 42 43 44 45 46 47 48 49 50

000
ASUS45 KBOU 022307
RWRCO

WEATHER ROUNDUP FOR COLORADO
NATIONAL WEATHER SERVICE DENVER/BOULDER CO
500 PM MDT WED SEP 02 2015

NOTE: "FAIR" INDICATES FEW OR NO CLOUDS BELOW 12000 FEET WITH NO
SIGNIFICANT WEATHER AND/OR OBSTRUCTIONS TO VISIBILITY.

COZ001>005-013-030-031-030000-
...NORTHWEST COLORADO...

CITY           SKY/WX    TMP DP  RH WIND       PRES   REMARKS
CRAIG          MOSUNNY   77  45  32 S3        30.11F
HAYDEN         NOT AVBL
MEEKER         MOSUNNY   78  49  35 N3        30.12F
MOUNT WERNER   NOT AVBL
STEAMBOAT SPGS MOSUNNY   73  43  33 NE7       30.18S
WALDEN         PTSUNNY   70  36  28 SW12      30.25S
$$

COZ006>008-011-030000-
...WEST CENTRAL VALLEYS...

CITY           SKY/WX    TMP DP  RH WIND       PRES   REMARKS
GRAND JUNCTION MOSUNNY   86  46  24 NW8       30.01F
MONTROSE       PTSUNNY   79  49  34 NW13      30.11R
EAGLE          MOSUNNY   79  43  27 W13       30.17S
RIFLE          LGT RAIN  76  55  48 SE6       30.08F
DELTA          PTSUNNY   84  47  27 S8        30.05S
NUCLA          PTSUNNY   86  37  17 SW9G22    30.13F
$$

COZ017>023-064>068-030000-
...SOUTHWEST COLORADO...

CITY           SKY/WX    TMP DP  RH WIND       PRES   REMARKS
DURANGO        CLOUDY    78  45  30 W13       30.19S
CORTEZ         MOSUNNY   81  46  29 S13       30.13F
PAGOSA SPRINGS CLOUDY    78  39  24 W16       30.26F THUNDER
TELLURIDE      PTSUNNY   66  45  46 S7        30.38S THUNDER
WOLF CREEK PAS NOT AVBL
$$

COZ009-010-012-014-032>034-037-058>063-030000-
...CENTRAL COLORADO...

CITY           SKY/WX    TMP DP  RH WIND       PRES   REMARKS
ASPEN          MOSUNNY   75  42  30 NW9       30.24S
BUENA VISTA    PTSUNNY   77  32  19 W13G18    30.24S
COPPER MTN     MOSUNNY   61  32  33 W17G24    30.58S
BERTHOUD PASS  FAIR      52  39  62 NW17      30.62S
COTTONWOOD PAS PTSUNNY   70  32  24 NW5       30.40F
GUNNISON       PTSUNNY   72  43  35 W9        30.29R
KREMMLING      MOSUNNY   73  34  23 W12       30.21S
LEADVILLE      MOSUNNY   64  35  34 S9        30.39F
MONARCH PASS   CLOUDY    52  34  50 SW14      30.69R
SALIDA         PTSUNNY   77  37  23 S20G28    30.29S
SUNLIGHT       MOSUNNY   63  46  55 CALM      30.50F
WILKERSON PASS PTSUNNY   63  30  29 SW5       30.54S
$$

COZ069>075-030000-
...SAN LUIS VALLEY/SANGRE DE CRISTO MOUNTAINS...

CITY           SKY/WX    TMP DP  RH WIND       PRES   REMARKS
ALAMOSA        PTSUNNY   72  39  30 NW17G30   30.23R
LA VETA PASS   PTSUNNY   73  36  25 S7        30.43F
SAGUACHE       LGT RAIN  63  50  63 CALM      30.31S
$$

COZ035-036-038>040-030000-
...NORTHERN COLORADO FRONT RANGE...

CITY           SKY/WX    TMP DP  RH WIND       PRES   REMARKS
DENVER INTL AP PTSUNNY   89  33  13 VRB6      30.01F
DMNS CITY PARK   N/A     85  39  19 SE6G12    30.00S
AURORA         PTSUNNY   86  37  17 SW9       30.04F
FRONT RANGE AP NOT AVBL
ERIE MUNI ARPT MOSUNNY   88  33  13 SE5       29.98S
BOULDER MUN AP MOSUNNY   86  39  19 SE3       30.00R
CENTENNIAL     PTSUNNY   88  36  15 NE5       30.05F
BROOMFIELD     NOT AVBL
FORT COLLINS   MOSUNNY   91  41  17 E5        29.95F
LONGMONT       MOSUNNY   93  39  15 E8        30.00S
$$

COZ041-046-047-076>085-087-088-030000-
...PIKES PEAK/PALMER DIVIDE AND SOUTHERN FOOTHILLS...

CITY           SKY/WX    TMP DP  RH WIND       PRES   REMARKS
COLO. SPRINGS  MOSUNNY   84  35  17 E7G17     30.09F
A. F. ACADEMY  PTSUNNY   82  36  19 VRB2      30.11S
ELLICOTT       MOSUNNY  N/A N/A N/A CALM      30.09S
FALCON         MOSUNNY   83  33  16 MISG      30.16S
FORT CARSON    MOSUNNY   85  41  21 SE9       30.05F
LIMON          SUNNY     88  38  17 VRB5      30.03F
MONUMENT HILL  MOSUNNY   77  36  22 SE3       30.17F
TRINIDAD       CLOUDY    82  43  25 S20G26    30.08F
$$

COZ042>045-048>051-090-091-030000-
...NORTHEAST COLORADO...

CITY           SKY/WX    TMP DP  RH WIND       PRES   REMARKS
GREELEY ARPT   MOSUNNY   93  39  15 SW6       29.96S
AKRON          SUNNY     90  38  16 S7        29.96F
BURLINGTON     SUNNY     93  42  17 VRB5      29.93F
WRAY           CLOUDY    98  40  13 S6        29.88F
STERLING       SUNNY     95  43  16 E5        29.89F
HOLYOKE        SUNNY     95  48  20 CALM      29.89F
FORT MORGAN    SUNNY     91  37  15 SE7       29.96S
$$

COZ086-089-092>099-030000-
...SOUTHEAST COLORADO...

CITY           SKY/WX    TMP DP  RH WIND       PRES   REMARKS
PUEBLO         PTSUNNY   93  40  15 SE13      29.96F
LA JUNTA       PTSUNNY   97  38  13 VRB5      29.92F
LAMAR          MOSUNNY   93  47  20 W7        29.88F
SPRINGFIELD      N/A     91  47  21 S14G23    29.95F
$$



USA.gov is the U.S. government's official web portal to all federal, state and local government web resources and services.